{"data":{"norad_id":66362,"epoch":"2026-05-24T23:41:02.194080Z","epoch_age_seconds":72215,"freshness":"FRESH","line1":"1 66362U 25254Q   26144.98683095  .00011020  00000+0  38353-3 0  9994","line2":"2 66362  53.1578 238.3067 0001305  79.0226 281.0921 15.30208466 30650","mean_motion":15.30208466,"eccentricity":0.0001305,"inclination_deg":53.1578,"raan_deg":238.3067,"arg_perigee_deg":79.0226,"mean_anomaly_deg":281.0921,"bstar":0.00038353,"rev_number":3065,"period_min":94.104825061136,"perigee_km":474.29543243957,"apogee_km":476.08415073218,"semimajor_km":6853.3267915859,"source":"CELESTRAK","updated_at":"2026-05-25T13:38:21.176911Z"}}